ACA203 CYYC-CYVR

Flight info

Callsign ACA203
Flight time 1h 1m
Altitude 34000
Route CYYC BOTAG Q894 BOOTH CANUC5 CYVR
Aircraft L101/H-FAA/L

Departure

Time 2026-05-08 00:40
Airport Calgary International Airport (CYYC)

Arrival

Time 2026-05-08 01:42
Airport Vancouver International Airport (CYVR)
Time Latitude Longitude Altitude Speed Heading
2026-05-08 00:03 51.12897 -114.01193 3564 ft 0 kts 340°
2026-05-08 00:26 51.12891 -114.01189 3559 ft 3 kts 340°
2026-05-08 00:26 51.12874 -114.01179 3561 ft 3 kts 340°
2026-05-08 00:27 51.12857 -114.01167 3559 ft 3 kts 306°
2026-05-08 00:27 51.12850 -114.01139 3560 ft 3 kts 251°
2026-05-08 00:27 51.12856 -114.01122 3557 ft 0 kts 221°
2026-05-08 00:32 51.12847 -114.01135 3561 ft 4 kts 221°
2026-05-08 00:32 51.12813 -114.01180 3556 ft 8 kts 218°
2026-05-08 00:32 51.12762 -114.01239 3562 ft 11 kts 218°
2026-05-08 00:32 51.12698 -114.01325 3564 ft 14 kts 221°
2026-05-08 00:33 51.12622 -114.01432 3559 ft 13 kts 223°
2026-05-08 00:33 51.12601 -114.01563 3559 ft 14 kts 270°
2026-05-08 00:33 51.12603 -114.01728 3561 ft 16 kts 271°
2026-05-08 00:33 51.12577 -114.01801 3557 ft 7 kts 181°
2026-05-08 00:34 51.12517 -114.01797 3561 ft 11 kts 179°
2026-05-08 00:34 51.12427 -114.01796 3562 ft 14 kts 179°
2026-05-08 00:34 51.12317 -114.01797 3563 ft 17 kts 180°
2026-05-08 00:34 51.12190 -114.01794 3562 ft 19 kts 181°
2026-05-08 00:35 51.12046 -114.01797 3561 ft 22 kts 181°
2026-05-08 00:35 51.11887 -114.01798 3562 ft 24 kts 179°
2026-05-08 00:35 51.11709 -114.01794 3558 ft 27 kts 179°
2026-05-08 00:35 51.11518 -114.01797 3562 ft 28 kts 179°
2026-05-08 00:36 51.11316 -114.01799 3561 ft 30 kts 180°
2026-05-08 00:36 51.11102 -114.01800 3562 ft 31 kts 178°
2026-05-08 00:36 51.10878 -114.01800 3561 ft 33 kts 179°
2026-05-08 00:36 51.10655 -114.01799 3556 ft 26 kts 180°
2026-05-08 00:37 51.10506 -114.01798 3562 ft 22 kts 179°
2026-05-08 00:37 51.10345 -114.01797 3562 ft 25 kts 180°
2026-05-08 00:37 51.10181 -114.01799 3556 ft 10 kts 180°
2026-05-08 00:38 51.10002 -114.01799 3561 ft 15 kts 179°
2026-05-08 00:38 51.09887 -114.01798 3564 ft 16 kts 181°
2026-05-08 00:38 51.09780 -114.01800 3561 ft 11 kts 174°
2026-05-08 00:38 51.09710 -114.01815 3559 ft 11 kts 217°
2026-05-08 00:39 51.09690 -114.01931 3558 ft 10 kts 270°
2026-05-08 00:39 51.09690 -114.02033 3559 ft 10 kts 270°
2026-05-08 00:39 51.09693 -114.02126 3560 ft 5 kts 291°
2026-05-08 00:39 51.09716 -114.02142 3563 ft 0 kts
2026-05-08 00:40 51.09731 -114.02141 3557 ft 9 kts
2026-05-08 00:40 51.10006 -114.02139 3562 ft 82 kts 359°
2026-05-08 00:40 51.10850 -114.02134 3581 ft 158 kts
2026-05-08 00:40 51.12015 -114.02082 4507 ft 174 kts
2026-05-08 00:41 51.13254 -114.01900 5604 ft 183 kts
2026-05-08 00:41 51.14546 -114.01710 6487 ft 195 kts
2026-05-08 00:41 51.15973 -114.01501 7052 ft 219 kts
2026-05-08 00:41 51.17551 -114.01282 7496 ft 233 kts
2026-05-08 00:42 51.19253 -114.01730 7679 ft 268 kts 336°
2026-05-08 00:42 51.20868 -114.03494 7998 ft 296 kts 314°
2026-05-08 00:42 51.22008 -114.06242 8906 ft 297 kts 296°
2026-05-08 00:42 51.22673 -114.09253 10410 ft 276 kts 288°
2026-05-08 00:43 51.23137 -114.12195 11506 ft 277 kts 281°
2026-05-08 00:43 51.23211 -114.15350 12120 ft 292 kts 268°
2026-05-08 00:43 51.22882 -114.18622 12709 ft 306 kts 258°
2026-05-08 00:43 51.22198 -114.21878 13261 ft 321 kts 251°
2026-05-08 00:44 51.21265 -114.25186 13779 ft 332 kts 246°
2026-05-08 00:44 51.20196 -114.28481 14457 ft 335 kts 244°
2026-05-08 00:44 51.19075 -114.31724 15309 ft 332 kts 244°
2026-05-08 00:44 51.17943 -114.34918 16168 ft 331 kts 244°
2026-05-08 00:45 51.16778 -114.38187 16733 ft 339 kts 244°
2026-05-08 00:45 51.15617 -114.41450 17207 ft 348 kts 244°
2026-05-08 00:45 51.14413 -114.44830 17737 ft 353 kts 244°
2026-05-08 00:45 51.13193 -114.48238 18438 ft 353 kts 244°
2026-05-08 00:46 51.11977 -114.51619 19163 ft 350 kts 244°
2026-05-08 00:46 51.10765 -114.54982 19769 ft 352 kts 245°
2026-05-08 00:46 51.09551 -114.58404 20162 ft 358 kts 247°
2026-05-08 00:46 51.08555 -114.62054 20462 ft 363 kts 256°
2026-05-08 00:47 51.07855 -114.65945 20857 ft 366 kts 260°
2026-05-08 00:47 51.07242 -114.69867 21502 ft 364 kts 260°
2026-05-08 00:47 51.06595 -114.73745 22303 ft 360 kts 259°
2026-05-08 00:47 51.05931 -114.77565 22998 ft 359 kts 260°
2026-05-08 00:48 51.05288 -114.81435 23336 ft 366 kts 261°
2026-05-08 00:48 51.04653 -114.85400 23602 ft 374 kts 261°
2026-05-08 00:48 51.03991 -114.89456 23853 ft 380 kts 261°
2026-05-08 00:48 51.03313 -114.93524 24324 ft 380 kts 262°
2026-05-08 00:49 51.02643 -114.97496 24988 ft 373 kts 262°
2026-05-08 00:49 51.01985 -115.01436 25696 ft 367 kts 264°
2026-05-08 00:49 51.01347 -115.05361 26104 ft 370 kts 264°
2026-05-08 00:49 51.00709 -115.09368 26289 ft 378 kts 264°
2026-05-08 00:50 51.00057 -115.13454 26495 ft 385 kts 264°
2026-05-08 00:50 50.99387 -115.17591 26799 ft 388 kts 264°
2026-05-08 00:50 50.98701 -115.21770 27426 ft 384 kts 265°
2026-05-08 00:50 50.98033 -115.25778 28153 ft 378 kts 265°
2026-05-08 00:51 50.97358 -115.29851 28681 ft 378 kts 266°
2026-05-08 00:51 50.96704 -115.33873 28831 ft 385 kts 265°
2026-05-08 00:51 50.96028 -115.38018 28907 ft 393 kts 265°
2026-05-08 00:52 50.94602 -115.46576 29246 ft 404 kts 265°
2026-05-08 00:52 50.93885 -115.50874 29724 ft 402 kts 265°
2026-05-08 00:52 50.93170 -115.55126 30319 ft 395 kts 265°
2026-05-08 00:52 50.92467 -115.59284 30966 ft 386 kts 266°
2026-05-08 00:53 50.91779 -115.63364 31549 ft 381 kts 266°
2026-05-08 00:53 50.91102 -115.67403 31953 ft 380 kts 266°
2026-05-08 00:53 50.90429 -115.71469 32136 ft 385 kts 266°
2026-05-08 00:53 50.89748 -115.75631 32109 ft 396 kts 266°
2026-05-08 00:54 50.89046 -115.79917 31942 ft 408 kts 265°
2026-05-08 00:54 50.87551 -115.88730 32280 ft 416 kts 264°
2026-05-08 00:54 50.86784 -115.93120 32829 ft 411 kts 265°
2026-05-08 00:55 50.86038 -115.97441 33604 ft 402 kts 265°
2026-05-08 00:55 50.85305 -116.01697 33957 ft 402 kts 265°
2026-05-08 00:55 50.84572 -116.06005 33998 ft 408 kts 265°
2026-05-08 00:56 50.83074 -116.14821 33960 ft 419 kts 264°
2026-05-08 00:56 50.81507 -116.23717 33904 ft 419 kts 264°
2026-05-08 00:57 50.80223 -116.31115 33921 ft 419 kts 264°
2026-05-08 00:57 50.78671 -116.40001 33944 ft 419 kts 263°
2026-05-08 00:58 50.77085 -116.48883 33944 ft 421 kts 262°
2026-05-08 00:58 50.75312 -116.57708 33955 ft 422 kts 261°
2026-05-08 00:59 50.73526 -116.66511 33915 ft 419 kts 262°
2026-05-08 00:59 50.72665 -116.70978 34018 ft 434 kts 261°
2026-05-08 00:59 50.71760 -116.75624 33973 ft 448 kts 261°
2026-05-08 01:00 50.69910 -116.85016 33976 ft 448 kts 261°
2026-05-08 01:00 50.68075 -116.94406 33940 ft 449 kts 261°
2026-05-08 01:01 50.66234 -117.03744 34007 ft 450 kts 261°
2026-05-08 01:01 50.64346 -117.13192 33945 ft 451 kts 261°
2026-05-08 01:02 50.62625 -117.21966 33947 ft 452 kts 261°
2026-05-08 01:02 50.60770 -117.31428 33946 ft 453 kts 260°
2026-05-08 01:03 50.58848 -117.40874 33955 ft 452 kts 260°
2026-05-08 01:03 50.56928 -117.50305 33956 ft 452 kts 261°
2026-05-08 01:04 50.55049 -117.59748 33949 ft 453 kts 259°
2026-05-08 01:04 50.53126 -117.69183 33947 ft 453 kts 259°
2026-05-08 01:05 50.51195 -117.78600 33932 ft 453 kts 259°
2026-05-08 01:05 50.49252 -117.88020 33961 ft 452 kts 259°
2026-05-08 01:06 50.47319 -117.97449 33926 ft 453 kts 259°
2026-05-08 01:06 50.45388 -118.06791 33950 ft 453 kts 259°
2026-05-08 01:07 50.43431 -118.16200 33947 ft 454 kts 259°
2026-05-08 01:07 50.41463 -118.25627 33951 ft 456 kts 259°
2026-05-08 01:08 50.39489 -118.35038 33959 ft 455 kts 258°
2026-05-08 01:08 50.37488 -118.44437 33971 ft 454 kts 258°
2026-05-08 01:09 50.35509 -118.53842 33964 ft 454 kts 259°
2026-05-08 01:09 50.33504 -118.63233 33974 ft 454 kts 258°
2026-05-08 01:10 50.31501 -118.72616 33958 ft 455 kts 258°
2026-05-08 01:10 50.29490 -118.82003 33928 ft 455 kts 258°
2026-05-08 01:11 50.27479 -118.91325 33952 ft 455 kts 258°
2026-05-08 01:11 50.25422 -119.00690 33963 ft 456 kts 257°
2026-05-08 01:12 50.23390 -119.10052 33945 ft 455 kts 258°
2026-05-08 01:12 50.21357 -119.19420 33934 ft 456 kts 257°
2026-05-08 01:13 50.19295 -119.28780 33928 ft 456 kts 257°
2026-05-08 01:13 50.17230 -119.38125 33930 ft 455 kts 257°
2026-05-08 01:14 50.15166 -119.47464 33930 ft 455 kts 257°
2026-05-08 01:14 50.13085 -119.56791 33934 ft 456 kts 257°
2026-05-08 01:15 50.10997 -119.66117 33906 ft 456 kts 256°
2026-05-08 01:15 50.08902 -119.75443 33925 ft 456 kts 256°
2026-05-08 01:16 50.06797 -119.84767 33932 ft 456 kts 256°
2026-05-08 01:16 50.04685 -119.94075 33932 ft 456 kts 256°
2026-05-08 01:17 50.02577 -120.03332 33938 ft 456 kts 256°
2026-05-08 01:17 50.00448 -120.12643 33928 ft 457 kts 255°
2026-05-08 01:18 49.98309 -120.21952 33942 ft 457 kts 255°
2026-05-08 01:18 49.96161 -120.31259 33942 ft 457 kts 255°
2026-05-08 01:19 49.94005 -120.40558 33940 ft 458 kts 255°
2026-05-08 01:19 49.91843 -120.49847 33933 ft 458 kts 255°
2026-05-08 01:20 49.89692 -120.59047 33731 ft 450 kts 255°
2026-05-08 01:20 49.88620 -120.63603 33342 ft 449 kts 254°
2026-05-08 01:20 49.87542 -120.68163 32784 ft 451 kts 254°
2026-05-08 01:20 49.86458 -120.72743 32008 ft 456 kts 254°
2026-05-08 01:21 49.85363 -120.77387 31223 ft 461 kts 254°
2026-05-08 01:21 49.84257 -120.82078 30481 ft 466 kts 253°
2026-05-08 01:21 49.83138 -120.86812 29730 ft 468 kts 253°
2026-05-08 01:21 49.82016 -120.91548 29095 ft 467 kts 253°
2026-05-08 01:22 49.80913 -120.96179 28736 ft 461 kts 252°
2026-05-08 01:22 49.79809 -121.00776 28502 ft 449 kts 252°
2026-05-08 01:22 49.78732 -121.05212 28093 ft 432 kts 252°
2026-05-08 01:22 49.77693 -121.09503 27416 ft 420 kts 252°
2026-05-08 01:23 49.76681 -121.13698 26626 ft 413 kts 252°
2026-05-08 01:23 49.75688 -121.17821 25856 ft 406 kts 252°
2026-05-08 01:23 49.74702 -121.21878 25102 ft 400 kts 251°
2026-05-08 01:23 49.73722 -121.25883 24432 ft 396 kts 251°
2026-05-08 01:24 49.72749 -121.29870 23996 ft 402 kts 251°
2026-05-08 01:24 49.71748 -121.33992 23560 ft 417 kts 250°
2026-05-08 01:24 49.70718 -121.38245 22993 ft 426 kts 250°
2026-05-08 01:24 49.69680 -121.42540 22439 ft 426 kts 250°
2026-05-08 01:25 49.68645 -121.46810 21953 ft 424 kts 250°
2026-05-08 01:25 49.67611 -121.51067 21442 ft 422 kts 250°
2026-05-08 01:25 49.66579 -121.55300 20972 ft 419 kts 250°
2026-05-08 01:25 49.65546 -121.59507 20461 ft 419 kts 250°
2026-05-08 01:26 49.64507 -121.63696 20011 ft 417 kts 250°
2026-05-08 01:26 49.63474 -121.67864 19534 ft 415 kts 250°
2026-05-08 01:26 49.62453 -121.72024 19060 ft 414 kts 250°
2026-05-08 01:26 49.61433 -121.76166 18585 ft 412 kts 249°
2026-05-08 01:27 49.60411 -121.80293 18114 ft 411 kts 249°
2026-05-08 01:27 49.59389 -121.84397 17578 ft 408 kts 249°
2026-05-08 01:27 49.58374 -121.88464 17083 ft 406 kts 249°
2026-05-08 01:27 49.57361 -121.92508 16574 ft 402 kts 249°
2026-05-08 01:28 49.56370 -121.96465 16092 ft 400 kts 249°
2026-05-08 01:28 49.55377 -122.00448 15605 ft 397 kts 249°
2026-05-08 01:28 49.54298 -122.04337 15120 ft 394 kts 244°
2026-05-08 01:28 49.52919 -122.07963 14642 ft 387 kts 237°
2026-05-08 01:29 49.51419 -122.11244 14175 ft 364 kts 234°
2026-05-08 01:29 49.50000 -122.14323 13690 ft 344 kts 236°
2026-05-08 01:29 49.48715 -122.17356 13163 ft 329 kts 238°
2026-05-08 01:29 49.47555 -122.20313 12645 ft 316 kts 239°
2026-05-08 01:30 49.46456 -122.23173 12146 ft 306 kts 238°
2026-05-08 01:30 49.45378 -122.25936 11701 ft 296 kts 238°
2026-05-08 01:30 49.44336 -122.28584 11343 ft 285 kts 238°
2026-05-08 01:30 49.43327 -122.31148 10986 ft 275 kts 238°
2026-05-08 01:31 49.42329 -122.33612 10613 ft 266 kts 234°
2026-05-08 01:31 49.41225 -122.35855 10269 ft 262 kts 228°
2026-05-08 01:31 49.40032 -122.37954 9996 ft 259 kts 227°
2026-05-08 01:31 49.38842 -122.40043 9800 ft 261 kts 228°
2026-05-08 01:32 49.37657 -122.42160 9585 ft 261 kts 228°
2026-05-08 01:32 49.36469 -122.44268 9386 ft 261 kts 227°
2026-05-08 01:32 49.35264 -122.46363 9168 ft 261 kts 227°
2026-05-08 01:32 49.34068 -122.48444 8962 ft 259 kts 227°
2026-05-08 01:33 49.32887 -122.50521 8876 ft 258 kts 227°
2026-05-08 01:33 49.31711 -122.52607 8815 ft 258 kts 228°
2026-05-08 01:33 49.30530 -122.54682 8726 ft 258 kts 227°
2026-05-08 01:33 49.29333 -122.56729 8393 ft 262 kts 227°
2026-05-08 01:34 49.28113 -122.58789 7994 ft 258 kts 227°
2026-05-08 01:34 49.26916 -122.60808 7666 ft 253 kts 226°
2026-05-08 01:34 49.25749 -122.62784 7543 ft 250 kts 227°
2026-05-08 01:34 49.24573 -122.64775 7433 ft 253 kts 226°
2026-05-08 01:35 49.23370 -122.66753 7223 ft 255 kts 225°
2026-05-08 01:35 49.22199 -122.68801 6868 ft 256 kts 232°
2026-05-08 01:35 49.21219 -122.71056 6512 ft 253 kts 240°
2026-05-08 01:35 49.20422 -122.73441 6029 ft 252 kts 243°
2026-05-08 01:36 49.19701 -122.75851 5636 ft 240 kts 245°
2026-05-08 01:36 49.19050 -122.78153 5019 ft 236 kts 247°
2026-05-08 01:36 49.18410 -122.80453 4421 ft 231 kts 247°
2026-05-08 01:36 49.17786 -122.82663 3978 ft 221 kts 246°
2026-05-08 01:37 49.17189 -122.84765 3650 ft 209 kts 246°
2026-05-08 01:37 49.16769 -122.86779 3494 ft 191 kts 263°
2026-05-08 01:37 49.16839 -122.88781 3473 ft 185 kts 278°
2026-05-08 01:37 49.17073 -122.90731 3549 ft 189 kts 281°
2026-05-08 01:38 49.17306 -122.92631 3420 ft 174 kts 280°
2026-05-08 01:38 49.17518 -122.94419 3061 ft 169 kts 279°
2026-05-08 01:38 49.17725 -122.96176 2705 ft 165 kts 279°
2026-05-08 01:38 49.17921 -122.97838 2443 ft 156 kts 278°
2026-05-08 01:39 49.18106 -122.99404 2216 ft 142 kts 278°
2026-05-08 01:39 49.18277 -123.00861 2053 ft 138 kts 277°
2026-05-08 01:39 49.18453 -123.02376 2002 ft 151 kts 276°
2026-05-08 01:39 49.18643 -123.04004 1995 ft 159 kts 278°
2026-05-08 01:40 49.18838 -123.05690 1707 ft 161 kts 278°
2026-05-08 01:40 49.19050 -123.07336 1288 ft 158 kts 279°
2026-05-08 01:40 49.19257 -123.08994 1037 ft 158 kts 278°
2026-05-08 01:40 49.19444 -123.10632 760 ft 155 kts 277°
2026-05-08 01:41 49.19615 -123.12224 564 ft 149 kts 278°
2026-05-08 01:41 49.19740 -123.13241 401 ft 145 kts 278°
2026-05-08 01:41 49.19967 -123.15234 156 ft 143 kts 277°
2026-05-08 01:41 49.20128 -123.16701 30 ft 131 kts 279°
2026-05-08 01:42 49.20258 -123.17793 30 ft 82 kts 281°
2026-05-08 01:42 49.20336 -123.18476 28 ft 51 kts 282°
2026-05-08 01:42 49.20381 -123.18873 30 ft 23 kts 282°
2026-05-08 01:42 49.20393 -123.19016 30 ft 19 kts 272°
2026-05-08 01:43 49.20370 -123.19290 30 ft 20 kts 250°
2026-05-08 01:43 49.20341 -123.19412 29 ft 15 kts 250°
2026-05-08 01:43 49.20306 -123.19559 30 ft 15 kts 250°
2026-05-08 01:43 49.20257 -123.19603 30 ft 8 kts 146°
2026-05-08 01:44 49.20238 -123.19508 30 ft 11 kts 100°
2026-05-08 01:44 49.20221 -123.19364 30 ft 16 kts 100°
2026-05-08 01:44 49.20199 -123.19180 30 ft 19 kts 100°
2026-05-08 01:44 49.20177 -123.18981 30 ft 20 kts 99°
2026-05-08 01:45 49.20154 -123.18771 30 ft 21 kts 99°
2026-05-08 01:45 49.20132 -123.18595 30 ft 12 kts 101°
2026-05-08 01:45 49.20102 -123.18503 30 ft 9 kts 156°
2026-05-08 01:45 49.20042 -123.18514 30 ft 9 kts 191°
2026-05-08 01:46 49.19972 -123.18534 29 ft 11 kts 191°
2026-05-08 01:46 49.19893 -123.18555 30 ft 12 kts 190°
2026-05-08 01:46 49.19813 -123.18566 30 ft 10 kts 165°
2026-05-08 01:46 49.19773 -123.18488 30 ft 9 kts 102°
2026-05-08 01:47 49.19750 -123.18393 30 ft 10 kts 127°
2026-05-08 01:47 49.19722 -123.18300 29 ft 7 kts 89°
2026-05-08 01:47 49.19751 -123.18249 30 ft 7 kts 43°
2026-05-08 01:48 49.19804 -123.18173 28 ft 0 kts 43°